Francistown, Botswana

9:30 PM CAT on August 17, 2017 (GMT +0200)
Francistown

Weather History for FBFT - January, 2013

Change the Weather History Date:

Wednesday, January 16, 2013

  Actual Average Record
Temperature  
Mean Temperature 72 °F -  
Max Temperature 75 °F 84 °F 102 °F (2003)
Min Temperature 69 °F 65 °F 60 °F (2012)
Cooling Degree Days 7    
Growing Degree Days 22 (Base 50)    
Moisture  
Dew Point 69 °F    
Average Humidity 92    
Maximum Humidity 100    
Minimum Humidity 78    
Precipitation  
Precipitation 0.00 in - - ()
Sea Level Pressure  
Sea Level Pressure 30.01 in    
Wind  
Wind Speed 9 mph ()    
Max Wind Speed 14 mph    
Max Gust Speed -    
Visibility 6.2 miles    
Events Rain    
Averages and records for this station are not official NWS values.
T = Trace of Precipitation, MM = Missing Value Source: Averaged Metar Reports

Daily Weather History Graph

Daily Weather History Graph

Search for Another Location

Airport or City:

Trip Planner

Search our weather history database for the weather conditions in past years. The results will help you decide how hot, cold, wet, or windy it might be!

Date:

Astronomy

Jan. 16, 2013 Rise Set
Actual Time 5:41 AM CAT 6:57 PM CAT
Civil Twilight 5:17 AM CAT 7:21 PM CAT
Nautical Twilight 4:48 AM CAT 7:50 PM CAT
Astronomical Twilight 4:18 AM CAT 8:20 PM CAT
Moon 10:07 AM CAT (1/16) 10:18 PM CAT (1/16)
Length of Visible Light 14h 04m
Length of Day
13h 16m
Waxing Crescent, 25% of the Moon is Illuminated
Jan 16
Waxing Crescent
Jan 19
First Quarter
Jan 27
Full
Feb 3
Last Quarter
Feb 10
New

Hourly Weather History & Observations

Time (CAT) Temp. Dew Point Humidity Pressure Visibility Wind Dir Wind Speed Gust Speed Precip Events Conditions
12:00 AM 71.6 °F 68.0 °F 88% 29.98 in 6.2 mi East 13.8 mph - N/A Rain Rain
3:00 AM 69.8 °F 69.8 °F 100% 29.95 in 6.2 mi East 5.8 mph - N/A Rain Light Rain
4:00 AM 69.8 °F 69.8 °F 100% 29.95 in 6.2 mi East 13.8 mph - N/A Rain Light Rain
5:00 AM 69.8 °F 69.8 °F 100% 29.98 in 6.2 mi East 10.4 mph - N/A Rain Rain
6:00 AM 69.8 °F 69.8 °F 100% 30.01 in 6.2 mi East 9.2 mph - N/A Rain Light Rain
7:00 AM 69.8 °F 69.8 °F 100% 30.01 in 6.2 mi East 10.4 mph - N/A Rain Rain
8:00 AM 69.8 °F 69.8 °F 100% 30.01 in 6.2 mi East 13.8 mph - N/A Rain Rain
9:00 AM 69.8 °F 68.0 °F 94% 30.01 in 6.2 mi ENE 6.9 mph - N/A Rain Rain
10:00 AM 69.8 °F 68.0 °F 94% 30.04 in 6.2 mi NNE 6.9 mph - N/A Rain Light Rain
11:00 AM 71.6 °F 69.8 °F 94% 30.01 in 6.2 mi NNE 8.1 mph - N/A   Mostly Cloudy
12:00 PM 73.4 °F 69.8 °F 88% 30.01 in 6.2 mi North 12.7 mph - N/A   Mostly Cloudy
1:00 PM 75.2 °F 68.0 °F 78% 30.01 in 6.2 mi North 11.5 mph - N/A   Scattered Clouds
2:00 PM 75.2 °F 69.8 °F 83% 30.01 in 6.2 mi North 11.5 mph - N/A Rain Light Rain
3:00 PM 75.2 °F 69.8 °F 83% 29.98 in 6.2 mi North 13.8 mph - N/A   Mostly Cloudy
4:00 PM 75.2 °F 69.8 °F 83% 29.98 in 6.2 mi NNE 9.2 mph - N/A Rain Light Rain
5:00 PM 75.2 °F 69.8 °F 83% 29.98 in 6.2 mi ESE 3.5 mph - N/A   Scattered Clouds
6:00 PM 75.2 °F 68.0 °F 78% 29.98 in 6.2 mi SE 6.9 mph - N/A   Mostly Cloudy
7:00 PM 71.6 °F 69.8 °F 94% 30.01 in 6.2 mi SE 8.1 mph - N/A   Scattered Clouds
8:00 PM 71.6 °F 69.8 °F 94% 30.04 in 6.2 mi ESE 9.2 mph - N/A   Scattered Clouds
9:00 PM 71.6 °F 69.8 °F 94% 30.04 in 6.2 mi East 8.1 mph - N/A   Scattered Clouds
10:00 PM 69.8 °F 68.0 °F 94% 30.06 in 6.2 mi East 8.1 mph - N/A   Scattered Clouds
11:00 PM 69.8 °F 68.0 °F 94% 30.06 in 6.2 mi ENE 12.7 mph - N/A   Mostly Cloudy